This is the latest recevied weather packets stored in our database for station/object WW5JC. If no packets are shown the sender has not sent any weather packets the latest 10 day(s).
| Time | Temp. | Humidity | Pressure | Rain* | Wind** | Luminosity | Snow |
|---|---|---|---|---|---|---|---|
| 1777676353 | 18.33° C | 71% | 1016.8 hPa | 0 mm | - | 60 W/m² | - |
| 1777676050 | 18.33° C | 75% | 1016.7 hPa | 0 mm | - | 77 W/m² | - |
| 1777675746 | 18.33° C | 72% | 1016.8 hPa | 0 mm | - | 80 W/m² | - |
| 1777675444 | 18.33° C | 74% | 1016.6 hPa | 0 mm | - | 100 W/m² | - |
| 1777675140 | 18.33° C | 69% | 1016.7 hPa | 0 mm | - | 91 W/m² | - |
| 1777674836 | 18.33° C | 67% | 1016.5 hPa | 0 mm | - | 83 W/m² | - |
| 1777674533 | 18.33° C | 70% | 1016.5 hPa | 0 mm | - | 97 W/m² | - |
| 1777674231 | 18.33° C | 70% | 1016.4 hPa | 0 mm | - | 119 W/m² | - |
| 1777673927 | 18.33° C | 72% | 1016.4 hPa | 0 mm | - | 90 W/m² | - |
| 1777673623 | 18.33° C | 69% | 1016.3 hPa | 0 mm | - | 96 W/m² | - |
| 1777673322 | 18.33° C | 70% | 1016.1 hPa | 0 mm | - | 122 W/m² | - |
| 1777673018 | 18.33° C | 69% | 1016 hPa | 0 mm | - | 106 W/m² | - |
| 1777672715 | 18.33° C | 71% | 1016.1 hPa | 0 mm | - | 112 W/m² | - |
| 1777672411 | 18.33° C | 70% | 1016.5 hPa | 0 mm | - | 154 W/m² | - |
| 1777672107 | 18.33° C | 66% | 1016.7 hPa | 0 mm | - | 112 W/m² | - |
| 1777671802 | 18.33° C | 74% | 1016.7 hPa | 0 mm | - | 126 W/m² | - |
| 1777671499 | 18.33° C | 69% | 1016.8 hPa | 0 mm | - | 160 W/m² | - |
| 1777671195 | 18.33° C | 70% | 1016.6 hPa | 0 mm | - | 167 W/m² | - |
| 1777670891 | 18.33° C | 67% | 1016.8 hPa | 0 mm | - | 153 W/m² | - |
| 1777670588 | 18.33° C | 69% | 1016.7 hPa | 0 mm | - | 138 W/m² | - |
| 1777670285 | 18.33° C | 68% | 1016.8 hPa | 0 mm | - | 151 W/m² | - |
| 1777669982 | 18.89° C | 69% | 1017 hPa | 0 mm | - | 187 W/m² | - |
| 1777669679 | 18.33° C | 69% | 1017.1 hPa | 0 mm | - | 183 W/m² | - |
| 1777669375 | 18.33° C | 69% | 1017.3 hPa | 0 mm | - | 177 W/m² | - |
| 1777669072 | 18.33° C | 68% | 1017.2 hPa | 0 mm | - | 181 W/m² | - |
* Rain latest hour (hover to see other rain measurements)
** Current wind speed in m/s (hover to see current wind gust speed)